RH
13 13 13 13 13 13 14 14 14 14 13 13 13 13 12 12 11 10 9 9 9 9 9 9 8 8 8 8 8 8 8 8 7 7 7 7 7 7 7 7 6 6 6 6 6 6 6 6 6 7 8 9 10 11 12 13 14 16 18 19 21 23 23 24 26 27 28 28 28 27 27 28 26 26 27 29 30 31 32 31 30 31 31 30 27 20 18 17
14 15 14 15 15 15 15 15 14 14 13 13 12 12 12 11 11 10 10 9 9 9 9 9 9 8 8 8 8 8 8 8 8 8 8 7 7 7 7 7 7 6 6 6 6 6 6 7 8 8 9 10 11 12 13 15 17 18 19 20 22 23 24 26 28 30 32 33 33 33 32 32 30 29 29 29 29 29 31 32 31 32 32 33 30 23 19 18
16 16 16 16 16 15 15 15 14 13 13 13 12 12 11 11 11 10 10 10 9 9 9 9 9 9 9 9 8 8 8 8 8 8 8 8 8 7 7 7 6 6 6 6 6 7 7 8 9 10 11 12 13 14 16 18 19 20 19 20 22 21 22 27 31 33 36 37 37 35 34 34 33 33 32 31 30 29 28 29 31 32 33 35 33 28 25 23
15 15 15 15 15 15 14 14 13 13 13 12 12 11 11 11 10 10 10 10 10 9 9 9 9 9 9 9 9 9 9 8 8 8 8 8 8 7 7 7 7 7 6 6 6 7 8 9 11 12 13 14 14 16 17 19 20 20 20 19 21 20 22 29 33 34 35 35 34 32 30 30 30 29 29 28 28 30 29 26 28 30 31 34 35 33 30 31
14 14 13 13 13 13 13 13 12 12 12 12 11 11 11 11 11 10 11 10 10 10 10 10 10 10 9 9 9 9 9 8 8 8 8 8 7 7 7 7 7 7 6 6 6 7 9 11 13 13 14 14 15 16 17 18 19 20 19 16 18 21 26 32 34 33 32 32 32 31 30 30 29 27 24 21 21 29 32 29 28 27 28 31 33 34 33 34
12 12 12 12 12 12 12 12 12 12 12 12 11 11 11 11 11 10 10 10 10 10 10 10 9 10 9 9 9 9 9 8 8 8 7 7 7 7 7 7 7 7 6 6 7 8 11 12 14 15 15 16 17 17 17 17 17 17 20 19 22 27 30 34 34 33 33 33 33 33 32 32 32 30 27 22 19 24 27 29 31 29 28 28 30 32 33 35
11 12 11 11 11 11 11 11 11 11 11 11 11 11 11 11 11 11 11 10 10 10 10 10 10 9 9 9 9 9 8 8 8 7 7 7 7 7 7 7 7 6 6 6 8 10 13 14 16 17 18 19 19 19 18 20 20 22 27 30 32 34 34 35 35 35 35 35 35 34 33 34 34 32 32 28 23 20 19 22 27 30 31 29 28 29 30 33
11 11 11 11 11 11 11 11 11 11 10 10 10 10 10 10 10 10 10 10 10 9 9 9 9 9 9 9 8 8 8 7 8 7 7 7 7 7 7 7 6 6 6 7 9 12 14 16 17 18 19 21 21 22 25 27 28 31 35 37 37 37 37 36 36 36 36 36 36 36 36 36 35 32 32 32 26 21 19 18 21 24 29 31 31 30 30 30
12 12 12 11 11 11 11 11 11 11 11 11 11 12 12 12 11 11 11 10 10 9 9 9 9 9 8 8 8 8 8 8 8 8 8 7 7 7 7 7 6 7 8 9 12 14 16 17 18 20 21 24 25 27 31 32 34 37 39 37 37 39 39 38 38 38 37 37 38 39 40 39 36 32 30 32 29 24 21 21 21 21 23 27 30 31 31 31
12 12 11 11 11 11 11 11 12 14 15 16 17 17 16 16 15 15 14 13 12 11 11 10 9 9 9 9 9 8 8 8 8 8 8 7 7 7 8 8 9 10 11 13 14 15 17 18 20 22 24 28 30 32 34 34 36 38 38 37 38 39 40 40 39 38 37 38 39 40 41 40 37 32 30 31 30 28 26 24 24 23 23 25 27 28 29 31
12 12 12 12 13 14 15 18 20 22 23 23 22 20 18 16 15 14 14 13 13 13 12 11 11 10 10 9 9 9 9 9 8 8 8 8 8 8 9 9 10 12 12 13 15 16 19 21 24 25 27 29 32 35 35 36 38 38 36 36 38 39 39 41 39 38 38 37 38 40 41 41 38 34 32 32 31 32 32 30 27 25 25 25 26 27 27 28
21 22 22 23 24 26 28 31 32 32 32 32 30 28 26 24 21 19 17 15 13 12 11 11 11 11 11 10 10 10 10 9 9 8 8 8 8 9 10 11 12 14 15 16 19 22 24 25 27 28 29 30 33 35 35 36 36 37 37 35 37 39 38 40 38 38 39 37 37 37 38 40 40 38 33 31 31 32 33 34 34 31 28 26 26 28 29 29
35 36 36 36 37 37 38 39 39 38 38 38 37 37 36 35 33 31 29 26 23 20 18 16 14 13 12 12 12 13 13 12 12 12 13 14 15 17 18 20 22 23 24 25 26 28 28 28 28 30 31 33 35 35 35 36 34 36 38 36 37 36 35 37 36 38 40 37 37 37 35 36 40 40 35 31 31 31 32 35 38 38 36 33 30 29 29 30
41 41 41 41 41 41 41 41 40 40 40 39 39 38 38 37 37 36 36 35 33 31 29 27 24 22 19 19 19 19 20 20 20 21 22 23 25 27 27 28 28 29 29 29 30 29 30 30 31 33 35 37 38 37 36 36 34 36 37 34 35 32 32 35 34 36 38 36 36 35 32 32 37 41 37 35 33 31 31 34 39 41 41 40 37 33 31 32
41 41 41 41 40 40 40 39 39 39 38 38 37 36 36 36 36 36 36 36 36 35 34 33 33 31 29 29 28 27 27 27 28 29 28 29 30 31 31 31 31 31 31 32 33 33 35 36 37 39 40 42 41 38 37 35 35 39 37 32 33 31 31 34 34 34 36 34 32 30 28 29 33 38 39 38 37 34 31 32 37 41 43 43 40 37 35 33
38 38 37 37 36 36 35 35 34 33 33 33 32 32 31 31 31 31 30 30 30 30 29 29 29 28 28 29 30 30 30 30 30 31 31 31 32 33 34 34 34 35 35 36 37 38 40 40 41 42 42 44 44 40 37 36 38 41 38 34 35 35 33 35 34 34 35 32 30 29 29 31 33 39 45 46 45 43 38 37 42 46 46 43 40 39 37 33
29 29 29 29 28 28 28 28 28 28 28 29 29 29 29 30 30 31 31 31 32 32 32 32 32 31 31 32 33 34 35 35 35 35 36 36 36 37 37 37 38 39 38 39 39 40 41 39 39 41 42 46 46 42 39 38 40 41 40 40 40 39 38 37 37 38 38 35 34 34 33 34 35 37 43 47 49 48 43 41 45 48 46 43 41 38 34 34
35 35 35 35 35 36 36 36 37 37 38 38 38 39 39 40 40 41 41 41 41 41 40 40 40 39 38 39 39 40 41 40 39 40 40 40 39 38 38 37 37 37 36 36 35 36 38 35 35 38 41 45 45 42 42 41 41 42 43 44 43 43 44 43 43 44 44 42 43 43 40 39 38 39 43 48 50 48 47 44 44 45 44 41 38 34 33 37
55 54 53 52 51 51 52 51 51 50 49 48 48 48 47 47 47 46 45 46 46 45 44 42 42 42 40 38 38 39 40 39 39 40 39 38 37 37 37 37 38 39 37 38 38 37 40 37 36 42 44 46 47 46 46 46 47 49 48 48 48 48 49 50 51 52 50 50 52 51 48 44 43 45 48 50 50 48 45 44 42 41 39 37 35 34 35 37
62 62 60 58 57 57 56 55 53 51 50 49 48 47 45 45 45 43 42 44 43 42 41 39 39 41 40 37 37 38 37 36 36 36 37 37 38 40 42 45 48 49 49 49 47 47 51 48 46 54 58 57 56 55 56 55 56 55 54 54 55 55 56 58 60 61 57 54 54 53 48 44 44 48 49 50 50 48 44 41 39 37 36 36 36 36 34 33
62 62 60 58 56 54 53 52 49 48 48 48 48 48 48 49 51 50 50 52 51 50 49 48 44 42 42 37 34 36 35 34 34 34 36 37 41 46 50 56 58 58 59 56 53 52 54 54 55 62 68 68 68 68 67 66 66 64 60 57 56 59 62 62 64 65 61 58 56 54 48 45 47 49 49 48 47 47 43 38 37 38 38 38 37 36 33 33
59 59 58 57 55 52 51 50 50 50 52 54 57 59 61 63 65 65 64 64 68 70 67 67 66 61 61 54 46 46 40 37 35 34 38 40 45 52 55 59 62 60 59 55 54 55 53 54 58 62 68 71 71 72 70 70 73 74 72 67 64 68 69 66 67 65 61 58 55 52 46 45 47 46 44 44 45 45 40 35 36 41 41 38 37 36 34 35
68 66 63 60 55 53 53 53 54 57 61 64 67 69 70 70 71 71 69 65 69 77 74 74 75 71 71 68 66 67 60 57 53 47 53 56 55 60 58 57 61 60 56 53 55 56 52 54 58 61 68 72 72 76 78 77 75 76 78 77 77 79 76 71 68 63 57 53 49 46 42 41 41 38 36 37 39 39 33 30 34 38 38 37 37 37 35 35
84 84 82 76 68 60 57 58 59 63 67 69 71 72 71 71 72 71 70 63 59 69 76 75 72 69 70 69 70 76 72 70 67 61 69 71 64 64 60 57 58 59 56 53 55 55 54 60 62 61 66 70 73 80 85 81 77 77 77 78 80 79 73 67 62 55 50 48 44 41 39 36 36 36 36 37 39 37 31 29 33 33 32 33 33 34 33 33
84 84 84 86 84 75 67 64 65 68 69 71 73 74 73 74 74 70 69 62 51 57 72 76 73 71 72 70 72 78 74 70 69 67 70 71 65 62 61 59 58 59 59 56 54 53 56 66 69 66 67 69 73 79 82 76 72 75 75 73 73 68 62 57 53 49 46 44 42 41 40 37 39 42 43 43 44 42 37 36 38 37 35 35 33 33 36 36
78 78 77 84 90 88 81 75 74 73 70 73 77 78 78 79 79 73 69 64 50 50 61 66 69 69 67 69 71 73 72 67 67 67 65 65 61 59 61 63 63 64 64 63 60 57 61 69 72 70 69 71 74 80 81 74 68 69 68 67 64 60 57 55 53 51 49 48 47 48 47 42 42 43 41 38 37 36 34 34 37 37 38 39 38 43 51 53
76 78 80 86 90 88 83 79 80 77 74 79 83 82 82 82 83 79 74 68 53 48 55 58 63 64 62 64 64 64 68 65 63 63 61 60 60 60 62 65 69 69 68 67 63 60 66 73 75 74 73 73 75 79 81 78 72 69 67 67 65 63 62 60 59 57 54 53 52 50 48 43 41 39 35 32 31 29 28 28 29 31 33 35 41 54 66 70
83 84 85 89 87 83 81 81 83 82 81 83 84 82 81 81 84 82 80 74 55 46 56 62 62 61 62 65 62 64 67 63 60 60 60 61 64 66 66 65 68 69 69 68 62 59 63 69 74 76 77 77 78 80 82 81 78 73 72 70 67 65 63 60 58 55 53 51 48 46 44 40 38 35 33 31 30 29 26 26 27 27 28 29 36 56 74 80
89 87 87 87 86 87 88 88 86 83 83 84 84 83 80 81 85 84 83 76 57 49 59 66 66 67 70 71 66 66 66 62 61 62 64 68 71 73 73 71 71 72 74 72 68 67 65 66 73 75 77 79 78 79 80 78 76 73 70 67 65 62 59 57 55 52 50 47 44 44 43 40 36 33 32 31 30 29 26 25 26 25 27 30 33 45 68 87
94 93 91 89 90 94 94 93 88 83 83 87 90 86 81 83 88 85 80 68 58 56 58 62 71 76 76 74 73 71 68 67 68 68 70 74 77 77 76 75 73 74 78 77 77 78 71 70 78 80 81 81 79 78 78 75 74 71 68 65 62 59 57 56 54 52 50 45 42 43 42 39 35 32 31 30 30 29 25 23 25 26 28 38 48 48 61 85
98 98 94 90 92 96 94 91 85 79 81 89 96 93 88 90 88 81 70 61 65 68 60 64 77 83 81 80 81 79 76 77 77 75 74 74 77 76 74 73 71 72 77 79 81 82 76 75 80 81 80 80 78 77 75 72 70 66 63 61 58 55 54 53 50 49 47 42 40 39 37 35 33 30 30 30 30 28 25 23 25 30 30 35 51 58 69 89
97 97 95 92 92 91 87 86 81 73 72 82 94 95 94 92 81 70 64 67 80 79 68 74 83 83 83 84 83 82 83 88 89 85 80 77 76 73 74 77 76 78 81 81 80 77 74 74 76 76 75 74 72 69 65 63 60 57 55 54 52 48 47 48 45 43 41 37 36 35 32 30 28 26 26 28 30 27 24 24 25 30 31 31 41 53 68 83
97 98 98 96 95 93 88 90 92 87 83 85 89 91 91 83 67 61 66 76 88 82 73 81 85 82 84 84 82 82 87 93 93 88 85 85 82 80 86 91 91 89 87 84 81 74 68 66 66 67 66 63 60 57 56 52 49 50 50 49 48 46 47 49 45 44 44 42 43 42 35 28 25 25 25 27 28 25 23 25 23 24 27 29 36 45 56 63
99 98 96 95 98 99 97 98 100 99 98 94 93 96 87 68 58 63 72 80 88 86 85 92 93 89 88 84 84 87 91 93 90 86 88 89 88 91 97 99 98 95 90 85 80 74 68 62 58 59 57 54 53 54 54 51 50 51 50 50 50 49 55 57 50 48 49 48 48 45 36 29 27 27 26 25 23 20 19 21 21 21 22 26 31 36 42 45
99 96 94 93 95 97 99 100 99 99 101 98 100 101 84 67 73 84 88 91 94 94 97 99 98 96 93 90 90 91 92 92 88 86 88 87 86 86 86 87 87 87 89 87 82 77 71 62 56 56 56 56 56 57 57 57 59 57 52 53 55 56 61 63 57 52 52 51 47 39 33 29 26 25 22 20 18 16 18 19 19 20 24 29 31 31 33 34
100 99 98 97 95 96 100 100 99 100 100 99 101 97 85 84 96 100 97 98 100 99 99 100 99 99 98 97 94 90 87 86 83 80 78 77 77 73 73 79 79 79 86 89 88 83 74 65 59 57 63 63 60 62 64 63 66 66 61 58 59 60 61 59 56 52 50 48 40 29 26 23 20 20 18 15 16 17 18 19 21 26 30 31 30 29 30 32
101 99 99 101 100 100 100 99 100 100 99 101 99 93 91 96 102 100 94 95 100 101 100 99 99 98 96 93 89 85 81 79 77 73 69 69 67 63 70 84 80 77 86 91 92 91 85 80 73 68 74 75 68 66 64 63 66 68 67 63 60 58 53 49 47 44 40 37 31 24 21 18 17 18 16 15 16 17 21 25 26 29 32 30 28 28 29 30
101 99 99 100 101 100 100 99 100 100 101 98 90 87 92 95 98 101 97 96 100 101 99 97 94 92 91 88 84 79 74 73 73 70 67 70 72 68 75 87 83 81 90 94 96 97 96 94 86 79 82 82 75 67 62 61 61 59 57 52 46 42 37 33 33 32 29 26 22 17 15 14 12 12 11 11 11 15 25 32 31 29 30 29 29 29 28 26
100 99 99 100 101 100 99 100 100 100 101 93 84 88 95 96 98 102 102 100 101 100 96 92 89 89 91 90 87 81 75 72 73 74 73 75 82 83 82 86 86 87 92 97 101 101 99 96 89 81 79 76 71 64 57 51 45 40 36 30 26 23 20 20 21 21 19 17 16 14 13 10 7 7 8 8 13 22 30 31 30 32 33 34 36 34 30 29
101 101 100 99 101 100 100 101 100 100 100 93 90 93 96 98 100 100 99 98 98 98 97 94 93 94 95 97 97 95 92 86 85 90 91 88 91 94 93 93 96 97 96 99 102 98 93 89 81 75 72 66 57 46 36 27 22 19 16 15 14 12 13 16 15 13 13 14 15 16 15 13 12 14 14 16 24 31 32 30 31 37 39 42 45 42 37 38
99 99 97 99 102 101 99 99 97 99 100 94 90 92 94 94 93 91 94 97 99 101 100 99 100 100 99 100 100 100 101 98 96 99 100 98 99 100 99 99 101 100 98 97 94 88 80 69 58 54 50 44 34 22 14 11 10 9 10 13 10 10 18 19 14 12 13 16 22 28 31 29 26 27 26 30 37 36 33 32 35 40 44 45 45 43 40 42
97 96 96 100 103 100 97 93 87 87 88 83 84 90 93 91 89 89 93 97 100 101 100 100 101 99 100 101 100 101 102 101 100 100 100 99 100 102 100 100 100 97 92 85 76 68 58 42 32 27 23 20 16 10 7 8 9 11 13 14 11 12 19 19 15 13 13 20 29 36 43 42 37 37 39 47 53 50 46 43 40 43 48 50 48 43 39 40
99 100 100 101 102 101 99 90 81 82 85 85 90 94 94 95 96 95 94 95 99 99 99 101 101 99 99 100 99 99 99 99 97 97 98 98 97 97 95 93 90 82 71 60 50 45 36 24 21 19 11 9 8 6 6 8 12 17 16 14 13 13 14 16 16 17 24 31 29 32 47 51 51 61 66 64 63 62 63 58 51 49 50 52 50 44 43 45
101 101 100 100 100 101 99 90 85 88 89 89 91 89 89 91 88 86 87 89 93 95 96 96 96 97 99 100 101 102 103 104 97 86 79 75 72 72 70 65 58 49 40 32 26 24 20 13 14 13 7 6 6 6 8 8 12 16 14 14 16 14 15 14 13 19 29 28 28 52 73 61 52 65 67 58 56 64 72 70 62 58 52 46 42 40 43 44
100 99 99 100 101 100 94 85 82 81 76 72 70 71 83 92 91 91 92 89 89 93 97 96 92 93 94 91 87 84 82 77 64 48 38 34 33 33 31 27 24 19 16 12 9 8 8 6 8 8 7 8 7 7 9 11 12 13 13 15 15 14 15 14 16 23 25 25 42 69 77 61 54 59 59 57 59 62 63 58 51 46 41 33 27 24 24 22
100 98 93 87 80 72 63 55 51 48 42 38 36 37 49 63 72 80 82 81 81 83 84 77 64 58 55 48 41 36 31 25 19 14 11 10 10 10 9 9 8 7 6 6 6 6 6 6 7 8 10 11 10 10 11 12 13 13 13 14 13 14 14 13 21 26 28 50 71 61 50 56 56 45 43 48 44 35 31 27 21 18 17 14 12 10 10 9
61 57 49 41 33 26 22 20 18 16 13 14 15 14 14 19 27 33 36 39 40 37 35 29 22 18 16 13 11 10 8 7 7 7 6 6 6 6 6 5 6 6 6 6 7 8 9 9 9 10 12 12 12 13 13 13 14 13 13 14 13 15 14 12 17 17 20 46 55 29 19 34 29 15 18 22 17 14 14 12 10 9 8 8 8 8 8 7
17 16 13 11 10 9 8 8 7 7 7 7 8 8 7 8 10 11 11 12 12 10 9 8 7 7 6 6 6 6 5 6 5 5 5 6 6 6 6 6 6 7 7 8 9 10 12 12 12 13 14 14 13 14 14 14 14 13 14 15 14 15 15 13 13 13 12 19 20 10 10 14 10 9 12 9 8 11 10 9 10 10 9 9 9 8 8 9
8 8 8 8 8 8 8 8 8 7 7 7 7 7 7 8 8 8 8 7 7 7 7 7 7 7 7 8 7 7 7 7 7 7 7 7 7 8 9 9 9 9 9 10 11 13 14 13 14 14 14 14 14 15 14 13 13 13 14 15 15 15 16 14 12 12 11 11 10 11 11 9 9 10 9 8 10 10 9 11 11 10 11 11 10 11 11 11
7 7 7 8 8 8 8 8 8 7 7 7 7 7 8 8 8 9 9 9 10 10 10 11 11 11 11 10 9 9 9 8 8 8 8 9 10 10 11 11 12 12 12 13 13 14 15 14 15 14 14 15 15 14 14 13 13 13 13 14 16 15 13 12 11 10 11 10 10 10 10 10 11 11 12 13 12 10 11 12 11 12 13 12 13 14 13 13
6 6 7 7 7 7 8 8 8 9 9 8 8 9 10 11 12 13 14 14 13 13 14 14 13 13 13 12 11 11 11 11 11 11 11 12 12 13 14 14 15 15 14 15 15 15 15 14 14 14 13 14 15 14 13 13 12 12 13 15 15 13 11 10 10 10 10 10 11 11 13 13 14 16 16 15 14 14 14 13 13 14 14 14 16 15 15 15
6 6 7 8 9 8 8 9 10 10 10 10 12 14 15 15 16 18 18 17 15 15 16 16 16 15 14 14 14 13 13 14 14 14 14 15 15 16 16 16 16 16 16 16 15 15 15 14 14 14 13 13 14 13 12 13 12 12 14 14 12 11 11 11 11 11 11 12 14 15 15 16 18 19 18 16 17 16 15 15 16 15 15 16 16 14 14 13
Wind_Speed
24 24 23 23 23 23 22 22 21 20 19 19 18 18 18 17 17 17 17 17 17 17 16 16 16 16 16 16 16 16 17 17 18 17 17 18 19 19 20 21 21 21 21 22 22 22 22 22 22 21 21 22 22 22 21 19 18 18 18 18 18 20 22 22 22 22 22 22 23 23 23 22 22 24 23 20 22 24 23 25 27 27 24 23 24 23 21 20
26 26 25 25 25 24 23 23 22 21 20 20 19 19 19 19 19 19 19 20 20 19 19 19 18 18 18 18 19 19 20 21 21 20 20 21 21 22 22 23 23 23 23 23 23 23 23 23 23 23 23 23 23 22 21 19 20 20 19 19 20 22 23 23 24 24 24 23 24 24 24 25 24 24 25 24 23 24 23 24 27 28 27 25 23 23 21 19
27 27 26 26 25 25 24 23 22 22 22 21 21 21 21 21 21 21 21 21 21 21 21 21 21 21 21 21 21 21 22 24 23 23 23 24 24 24 25 25 25 24 24 25 25 25 25 24 24 24 24 23 22 22 22 20 21 22 21 22 23 25 25 25 26 26 25 24 24 25 25 25 26 26 25 26 25 24 24 26 28 27 28 28 26 24 21 18
27 27 26 26 25 25 24 24 23 23 23 22 23 22 22 22 23 23 23 23 23 23 23 23 23 23 23 24 24 24 25 26 26 26 26 26 27 26 27 27 26 27 27 27 26 26 25 25 24 24 24 24 22 21 23 23 23 24 24 24 26 28 28 26 27 27 25 24 25 26 26 26 27 27 26 28 26 23 24 28 30 29 28 28 27 26 21 16
27 27 26 26 26 25 25 25 24 24 24 24 25 25 25 25 25 25 25 25 26 26 26 25 25 26 26 26 26 26 27 29 28 28 28 28 29 29 28 29 29 29 29 28 27 26 25 25 24 24 23 23 23 23 24 25 25 26 27 28 28 29 29 28 29 28 25 24 25 27 28 27 27 27 27 28 26 24 25 28 32 32 29 28 27 27 24 19
28 28 28 27 27 27 27 27 27 27 27 27 27 27 28 28 28 28 28 28 28 28 28 28 28 28 28 28 28 28 29 31 31 30 30 30 31 32 31 31 31 30 29 28 27 26 25 25 24 24 23 23 25 25 26 28 28 27 28 30 30 30 29 27 28 28 26 26 27 29 30 29 30 29 28 27 25 25 27 27 30 32 31 30 28 27 27 24
31 30 30 30 30 29 29 29 30 30 30 30 31 31 31 31 31 31 31 31 31 31 31 31 31 30 30 30 30 30 30 33 35 33 32 33 33 34 34 33 32 31 30 28 27 26 25 25 25 24 24 25 26 28 28 30 31 29 28 30 30 31 30 28 28 29 29 28 29 31 31 31 32 32 29 26 24 26 28 27 29 30 30 31 30 29 29 28
34 33 33 33 33 33 33 33 33 33 33 34 34 34 34 34 35 35 35 34 34 34 33 33 33 33 33 32 32 32 31 34 37 36 35 35 34 35 34 33 32 31 29 28 27 26 26 26 26 26 27 27 28 29 30 31 32 30 29 30 30 30 31 31 30 30 31 31 31 31 31 31 33 33 29 25 25 27 27 28 28 29 30 29 30 31 30 30
37 36 36 36 36 36 36 36 36 36 36 36 36 36 37 37 37 37 37 37 37 37 37 36 36 36 35 35 35 33 33 36 38 38 36 35 34 34 32 31 30 29 29 28 28 28 27 28 28 29 29 30 30 30 32 33 32 31 32 32 31 30 31 32 31 31 33 33 33 33 30 30 32 33 29 27 27 26 26 28 28 28 30 30 29 30 31 31
39 38 38 38 38 38 38 38 38 37 37 36 36 36 37 37 37 37 38 38 38 38 38 38 38 38 37 37 36 33 33 36 37 36 36 34 32 31 30 29 28 28 29 28 29 29 29 30 31 31 32 31 32 32 34 34 33 33 34 33 32 32 32 32 32 33 34 34 34 35 33 29 32 34 30 30 30 27 25 27 29 28 28 30 31 30 31 32
39 39 39 39 39 39 38 38 37 36 36 35 35 35 35 35 35 35 35 35 36 36 36 36 36 36 35 35 33 31 32 34 34 34 33 32 31 29 29 29 29 29 29 29 30 31 32 33 33 34 34 33 33 34 35 34 35 35 36 35 34 34 34 32 33 34 36 37 36 38 37 31 31 34 33 32 33 30 27 26 29 30 28 28 29 30 32 32
38 38 38 38 38 38 37 37 36 36 35 35 35 34 34 34 34 33 33 33 33 34 33 33 33 33 32 30 28 29 31 31 32 32 32 32 31 30 30 30 30 31 31 32 32 33 35 36 36 36 36 35 35 36 36 36 37 36 37 39 36 36 36 34 35 34 36 40 38 40 42 35 31 33 35 34 34 33 30 26 27 31 31 30 29 30 33 34
38 38 38 38 38 38 37 37 37 37 37 37 36 36 36 36 36 35 35 34 34 34 34 33 32 32 31 28 27 29 31 31 32 32 33 33 32 32 32 33 33 34 34 35 35 36 37 37 37 38 38 38 37 38 38 38 39 36 37 41 39 38 37 36 36 35 36 41 41 42 46 39 31 31 35 36 35 35 33 29 28 30 32 31 30 31 33 35
40 40 40 40 40 39 39 39 39 39 39 39 39 39 38 38 38 38 37 37 37 36 36 36 35 35 33 30 29 30 32 33 33 34 35 35 35 35 35 36 37 37 37 38 38 38 38 39 39 39 39 39 39 39 39 40 40 37 38 42 42 41 39 37 39 36 36 41 43 44 47 43 34 30 33 36 36 36 35 32 30 31 31 31 31 31 32 34
42 42 42 42 41 41 41 41 41 41 41 41 40 40 40 40 39 39 39 39 39 39 39 39 38 38 37 34 33 34 35 35 36 37 38 38 38 37 37 38 38 38 39 39 39 40 40 40 40 40 40 39 38 39 40 40 41 38 39 42 42 43 41 39 41 39 37 41 44 45 46 44 39 32 30 34 36 36 36 34 32 32 32 32 33 32 31 32
43 43 42 42 43 42 42 42 42 42 42 41 41 41 41 40 40 40 40 40 40 40 40 40 40 40 39 36 35 36 36 37 38 39 39 39 39 39 39 40 40 40 41 40 41 41 41 42 41 41 41 39 38 39 41 42 41 39 41 43 42 43 43 42 43 41 39 41 43 44 44 44 42 36 30 31 35 35 35 35 33 32 33 34 35 34 33 33
42 42 42 42 42 42 42 42 42 42 42 41 41 41 41 41 41 41 41 41 41 41 41 41 41 41 41 39 37 36 36 38 39 40 40 40 39 39 40 40 41 41 41 41 42 42 42 43 42 42 42 39 38 41 43 44 43 41 42 44 43 44 44 44 43 42 43 44 43 43 44 44 43 40 35 32 34 35 35 34 32 32 34 35 36 37 37 36
41 42 42 42 42 42 42 42 43 43 42 42 42 42 42 42 42 42 43 42 42 42 43 42 41 41 42 40 39 37 37 38 40 40 40 40 40 40 40 40 41 41 42 42 42 42 42 43 44 43 42 39 39 42 45 45 45 44 44 45 45 45 44 44 43 43 46 47 45 44 45 46 46 45 43 40 39 39 38 37 34 34 35 36 37 38 37 36
42 43 43 43 43 44 44 44 44 44 44 43 43 43 43 43 43 43 44 43 42 43 44 44 42 42 43 42 41 39 38 39 40 40 40 40 39 39 40 40 40 41 43 43 44 44 43 45 47 45 42 40 42 45 46 46 46 46 46 46 47 47 46 45 44 45 46 46 46 46 46 47 48 48 47 46 45 44 41 39 37 36 37 37 37 38 36 35
43 44 44 44 44 44 44 45 44 44 44 43 43 43 43 43 43 44 44 42 43 43 44 44 43 42 42 43 43 41 39 40 40 39 39 39 39 40 41 41 41 42 44 45 46 46 44 46 49 46 42 41 44 47 47 47 47 47 47 48 48 49 49 47 47 47 47 47 46 46 46 46 47 47 46 45 45 44 43 40 38 37 37 37 36 36 36 37
44 44 44 44 45 45 45 45 45 44 44 44 43 43 43 43 43 45 44 42 42 43 44 45 45 43 42 45 44 41 41 41 39 38 38 39 40 41 42 42 42 43 45 47 48 47 46 47 48 46 44 43 44 47 48 49 49 49 49 49 50 50 50 49 49 49 48 48 47 46 47 46 44 43 41 40 40 41 42 40 37 34 33 33 34 35 36 37
44 45 45 45 46 46 45 45 45 45 44 44 44 44 44 45 45 46 46 45 43 43 44 45 46 45 43 46 45 42 43 43 41 40 39 40 41 42 44 43 43 44 46 48 47 47 48 48 48 47 45 45 46 47 48 49 49 50 50 51 51 50 50 50 50 50 50 48 46 46 45 44 41 39 37 35 35 38 40 41 38 33 31 32 32 33 34 35
45 46 46 46 47 47 47 47 46 46 46 45 46 46 47 47 48 48 49 49 46 44 46 46 47 48 47 47 45 43 44 44 43 42 40 40 42 43 45 45 44 44 46 46 45 46 48 48 49 48 45 45 47 47 48 47 48 50 50 50 49 48 48 49 48 48 48 47 45 45 44 42 39 39 39 35 35 37 38 41 40 36 36 34 33 33 33 34
46 47 48 48 49 50 50 49 48 47 47 48 48 49 49 49 49 50 50 51 50 47 47 47 49 51 50 50 47 45 44 43 43 42 39 40 43 44 45 45 44 43 43 43 43 44 45 46 47 47 45 44 44 44 45 46 46 47 47 48 46 44 45 46 45 45 45 45 46 46 46 44 40 40 42 40 40 42 41 42 41 40 41 39 37 37 36 35
49 49 50 50 52 52 52 51 50 50 50 50 51 50 50 50 50 51 51 52 52 50 48 47 48 50 50 50 48 46 46 44 43 43 42 42 43 43 42 42 41 39 39 40 41 41 41 41 42 44 44 43 42 41 41 43 44 43 44 43 41 41 42 43 43 44 45 46 47 49 51 50 45 43 44 45 45 47 48 48 46 46 46 43 43 42 39 36
53 53 53 53 53 52 52 53 52 52 52 51 51 51 50 51 51 52 52 53 53 51 50 48 47 47 48 48 47 45 45 44 43 43 42 41 41 40 39 37 36 36 36 37 38 38 38 37 38 40 41 42 41 39 38 40 41 41 41 40 39 40 41 43 44 46 48 49 49 51 53 56 53 49 48 49 50 52 54 54 52 52 51 48 48 43 34 28
56 55 54 53 52 52 53 53 52 52 52 51 51 52 52 53 54 54 53 54 54 52 52 51 48 47 46 45 45 44 43 43 42 41 41 40 39 38 37 36 34 34 35 35 37 37 36 36 37 38 39 40 40 38 38 39 40 41 40 40 41 42 44 45 47 48 50 51 52 52 53 56 56 53 52 54 56 57 58 58 57 56 54 53 49 38 25 20
57 56 54 53 53 53 52 51 51 51 51 52 52 53 53 54 55 54 52 53 54 54 53 51 49 48 46 44 43 42 42 41 40 39 38 38 37 36 37 36 35 35 34 35 37 37 36 36 36 37 38 39 39 39 40 40 41 42 42 43 44 45 46 47 48 50 51 53 54 53 53 56 57 56 56 59 61 62 61 60 59 57 56 56 50 36 24 21
57 55 54 53 52 52 51 51 51 51 51 52 53 54 54 55 54 52 51 53 55 54 52 49 47 46 45 43 42 41 40 40 39 38 38 38 38 37 38 38 38 37 36 36 37 38 38 39 38 39 38 39 40 41 42 42 43 43 43 45 46 47 48 48 50 52 53 56 56 54 56 59 60 58 60 62 63 64 64 63 62 59 57 56 53 43 30 25
54 54 54 53 52 51 51 52 52 52 51 51 52 53 53 52 50 49 51 54 54 52 50 47 45 44 43 42 42 41 40 40 40 40 40 40 40 40 40 40 40 40 40 40 40 40 41 42 41 40 41 41 42 42 43 44 44 44 45 47 48 49 51 52 54 55 57 59 57 57 59 62 63 62 62 64 65 66 66 65 63 60 56 51 49 48 39 31
51 51 51 51 49 49 49 50 51 51 49 49 50 51 50 49 49 50 53 53 50 48 47 45 44 42 42 43 43 42 42 42 42 42 42 42 42 42 42 43 44 44 45 44 43 43 43 42 42 42 42 43 42 43 45 45 45 47 49 51 52 53 54 56 58 58 60 61 60 61 63 65 67 66 65 65 65 65 66 65 62 60 58 52 49 48 42 38
47 46 46 47 47 46 46 47 48 49 49 48 49 49 49 50 52 53 54 50 47 47 46 44 44 44 44 44 45 45 45 45 44 44 44 44 44 45 45 46 47 46 46 45 45 45 44 43 43 43 43 43 44 46 47 47 48 50 51 52 54 56 57 58 59 60 61 63 63 64 66 68 69 68 67 66 65 65 65 65 63 61 60 56 53 51 46 46
47 43 42 43 45 45 45 46 47 49 50 50 49 50 51 53 56 56 53 47 46 47 46 45 45 45 45 46 46 47 47 46 46 46 47 47 46 46 46 45 46 46 46 45 46 46 46 46 46 45 45 46 47 48 49 50 51 52 53 54 55 57 57 58 59 60 60 61 61 62 64 67 69 68 67 66 66 67 66 65 64 63 61 58 55 54 53 54
49 47 45 44 44 44 44 45 47 49 51 52 52 52 53 55 56 54 51 47 47 47 45 44 44 45 46 47 48 48 47 47 47 48 48 47 46 45 44 44 44 46 47 47 48 49 49 50 50 50 50 49 49 49 50 52 53 54 55 55 56 55 55 56 58 60 61 61 60 61 65 67 68 67 67 67 67 67 66 65 64 63 62 60 57 56 58 60
51 52 52 49 48 48 46 44 44 46 48 49 50 52 53 53 52 50 48 46 46 45 42 41 42 44 46 47 47 47 47 47 48 49 49 49 48 47 47 47 47 48 48 48 49 50 52 53 53 53 53 52 51 51 53 54 54 56 57 57 56 54 53 56 59 60 61 62 63 64 66 67 66 65 65 66 66 64 63 62 61 61 60 59 58 57 57 59
49 50 51 52 53 54 53 49 46 46 46 45 46 47 47 47 46 46 45 44 44 44 42 41 41 42 44 45 45 47 48 49 51 50 50 50 50 50 50 50 50 50 49 48 49 51 53 54 54 53 54 54 54 54 56 56 56 57 58 57 56 56 55 57 59 60 60 62 65 65 66 66 63 62 63 63 62 60 59 58 57 57 57 57 57 56 57 57
44 44 44 48 51 55 57 56 53 51 50 48 47 44 42 43 43 44 46 46 46 46 44 43 43 44 45 46 48 49 50 50 50 50 50 51 53 53 51 50 50 50 49 49 50 51 52 52 53 53 54 55 56 57 59 60 59 59 59 58 58 59 60 59 60 60 60 62 65 64 64 64 61 61 63 61 60 59 56 55 55 55 56 57 57 58 58 58
46 45 44 46 49 52 55 56 55 55 55 56 54 50 48 48 48 48 50 49 47 47 47 47 47 46 46 47 50 52 52 52 52 52 53 53 55 55 52 51 52 51 51 51 52 52 52 52 53 53 54 56 57 58 60 62 63 62 61 61 60 60 61 60 59 60 60 63 65 64 63 62 60 60 60 60 60 59 55 54 55 56 57 58 59 58 58 59
49 48 49 50 52 53 53 54 55 56 57 59 58 55 54 53 53 53 52 50 49 50 50 50 50 48 48 49 51 53 54 54 55 56 56 55 55 55 54 55 55 54 53 52 52 53 54 55 57 56 56 58 60 61 62 62 62 63 63 63 62 60 59 57 57 57 59 62 64 63 63 61 59 57 58 59 58 56 55 55 56 57 58 59 59 58 59 61
53 52 53 53 54 54 53 53 55 56 58 58 57 56 56 55 54 53 54 53 52 51 50 50 49 48 48 49 50 52 53 53 53 54 56 54 53 53 54 54 55 55 54 54 55 57 58 60 62 61 61 63 64 63 62 60 60 61 62 61 59 58 56 56 57 56 57 60 61 62 63 60 55 54 55 55 53 52 52 53 56 58 58 59 60 61 62 63
57 56 57 56 56 57 57 58 59 60 61 61 61 61 60 59 58 57 56 54 52 50 49 48 47 48 49 50 50 51 51 51 50 51 53 53 53 54 55 55 57 58 58 59 60 62 63 64 65 65 66 66 65 62 60 59 58 58 59 58 56 55 54 56 59 58 56 58 59 59 62 58 51 50 52 52 51 50 50 52 56 58 59 59 61 64 65 66
61 60 60 61 61 62 64 66 66 67 68 67 66 64 62 62 60 59 57 54 52 50 49 48 49 49 50 50 50 50 50 51 51 52 54 54 56 59 60 61 63 63 63 64 66 67 67 67 66 67 67 66 65 63 59 58 57 56 56 56 55 54 54 57 60 59 57 58 56 58 62 59 52 50 52 52 51 51 52 55 57 60 61 62 64 66 67 68
59 59 61 63 65 66 67 67 68 68 68 65 64 62 61 60 59 57 57 56 54 53 53 53 52 52 53 53 53 54 54 55 55 55 58 60 63 65 67 67 68 68 67 67 67 66 65 64 64 65 66 66 65 62 59 57 56 56 56 55 54 55 55 56 59 58 58 59 58 60 63 61 55 50 50 52 53 53 55 57 59 62 65 66 67 68 69 70
53 56 58 60 62 64 64 64 65 66 65 64 64 63 61 61 60 59 59 57 57 57 58 58 58 58 58 58 59 60 60 62 63 63 65 67 68 70 70 71 71 70 69 68 67 65 62 62 63 64 65 65 62 59 57 56 56 56 56 55 55 55 55 57 59 59 60 63 62 61 62 60 56 53 53 55 57 57 58 61 63 65 68 69 71 71 72 74
58 60 62 62 64 65 66 66 67 68 67 66 66 63 59 57 56 56 56 57 58 58 60 62 62 62 62 63 64 65 65 67 68 68 67 67 68 68 68 69 69 68 68 68 67 66 64 64 63 63 63 63 61 58 56 57 58 59 58 57 57 57 57 60 61 62 64 64 62 61 63 62 60 60 60 61 63 64 66 68 69 70 72 74 75 75 77 79
69 70 69 69 70 70 69 68 69 69 67 66 65 63 60 58 57 56 57 59 59 60 62 64 64 64 64 65 65 65 65 65 66 66 65 64 65 64 64 65 65 65 65 64 64 64 64 64 62 62 62 62 61 59 57 58 61 62 60 60 60 59 60 61 63 65 66 64 63 64 66 67 66 65 66 68 70 72 74 74 75 75 76 76 76 77 78 79
73 73 72 71 71 71 69 67 67 66 65 64 64 63 62 62 63 63 64 64 64 64 65 66 65 65 64 64 64 64 64 64 64 64 62 62 62 63 63 63 62 62 62 62 62 62 62 63 61 61 62 62 61 61 59 60 63 64 63 62 61 61 62 64 66 67 65 66 69 69 69 71 71 69 70 71 72 73 74 75 76 76 76 76 77 77 77 78
71 70 70 70 70 70 68 66 65 66 65 65 66 66 65 66 67 67 67 67 66 66 66 66 65 63 63 62 63 64 64 64 63 63 61 61 62 63 63 61 61 61 61 61 61 60 61 62 60 61 63 63 62 62 62 63 65 65 65 64 63 63 64 66 68 67 66 69 72 71 71 73 73 71 71 72 72 73 74 75 76 77 77 77 78 79 79 80
70 70 71 71 71 70 69 67 67 68 68 68 69 69 68 68 69 69 68 68 68 68 67 67 64 62 62 62 63 64 64 63 62 62 62 62 62 61 61 61 61 60 60 60 60 60 62 62 61 63 65 64 62 63 63 65 66 66 66 66 65 66 67 68 69 68 68 71 72 72 73 74 73 73 74 75 75 75 76 76 77 78 79 79 80 82 83 84
72 72 72 73 72 71 70 69 69 69 69 69 70 70 69 69 69 69 69 69 68 66 65 64 63 62 62 62 62 63 63 62 63 63 62 62 61 60 60 61 61 60 59 59 60 61 63 63 62 64 67 65 63 63 64 66 67 68 68 67 67 67 68 68 68 67 68 70 71 72 74 75 75 75 76 77 77 77 78 79 79 81 82 83 84 86 87 89
73 73 73 73 73 72 72 71 70 70 70 70 71 70 69 68 67 66 67 69 67 65 63 63 62 62 62 62 61 62 62 63 63 63 61 60 60 60 61 60 60 60 60 60 61 62 62 63 64 65 68 67 63 63 66 67 68 70 69 67 66 66 67 67 67 67 68 70 72 73 76 77 77 77 78 78 79 79 80 81 82 84 86 87 88 89 90 91
74 74 74 74 73 73 73 72 71 72 71 70 69 68 67 66 65 64 66 68 67 64 62 62 62 62 62 62 62 62 62 61 61 61 61 60 60 61 61 60 60 60 61 61 61 62 62 64 65 65 68 68 64 64 67 68 70 71 68 64 64 65 67 68 68 68 69 71 73 76 77 78 79 80 81 81 82 83 83 84 86 88 89 90 90 90 90 91
Wind_Direction
258 260 261 263 264 265 266 267 267 267 267 267 267 266 265 263 261 259 258 258 259 260 262 264 266 268 270 273 275 278 279 280 281 282 285 288 290 290 290 291 291 292 292 291 290 289 287 286 285 285 284 283 284 283 283 282 280 280 283 288 291 288 289 294 295 293 294 296 298 299 298 297 294 293 297 299 296 296 300 300 301 303 305 306 306 307 310 305
259 260 261 262 263 264 265 265 265 265 264 263 262 262 261 261 261 260 259 259 259 260 262 263 265 267 269 271 273 276 278 278 279 281 283 284 285 287 287 288 289 290 291 290 288 287 286 285 284 283 283 283 283 282 281 279 279 281 284 288 288 286 290 293 293 293 294 295 296 295 295 297 295 293 296 295 292 294 298 296 297 300 303 304 305 309 317 317
258 259 259 260 260 261 261 262 262 262 263 263 262 262 262 262 262 262 262 262 262 262 262 264 265 267 268 270 272 274 277 277 278 281 282 281 281 282 283 285 287 289 289 288 287 285 284 283 282 282 283 282 282 281 280 280 280 283 288 289 288 289 290 291 291 292 294 294 294 294 294 294 294 294 295 293 293 295 296 294 293 295 298 302 304 307 314 317
256 256 257 257 258 258 259 259 260 261 261 262 262 263 263 263 264 264 264 264 264 264 264 265 266 268 269 270 272 274 276 277 278 280 280 280 280 280 281 283 285 287 287 287 285 283 282 281 281 281 282 283 282 280 280 281 282 285 288 289 289 291 292 291 290 291 292 292 292 293 294 295 295 295 294 293 296 299 295 291 289 289 291 296 300 303 306 309
253 254 255 255 256 257 258 258 259 259 260 261 262 263 263 264 264 264 265 265 265 265 266 266 267 268 269 271 272 274 276 277 277 278 279 280 280 280 281 283 284 285 284 284 282 280 279 278 279 280 281 283 283 281 280 282 284 286 289 289 290 290 291 292 291 291 292 292 293 293 295 297 297 297 296 297 302 300 290 285 285 286 288 290 295 299 300 301
252 253 254 255 256 257 258 259 259 260 261 261 262 263 263 264 264 265 265 265 266 266 267 267 268 269 270 271 272 274 276 277 275 276 278 279 280 281 282 282 282 282 281 279 277 275 275 275 276 278 281 282 282 283 284 284 285 286 288 289 290 289 290 290 289 290 291 292 293 294 296 299 299 298 299 303 305 294 285 282 282 285 288 290 292 294 295 294
253 254 255 255 256 257 258 259 259 260 261 261 262 263 264 264 265 265 266 266 266 267 267 268 268 269 269 270 272 273 275 277 276 276 277 278 279 280 280 281 281 280 279 276 274 272 272 273 275 278 281 282 283 285 287 286 287 288 288 287 288 289 290 289 287 289 290 291 292 293 297 300 300 300 302 306 301 289 286 284 282 284 286 288 291 291 291 292
254 255 256 256 257 257 258 258 259 259 260 261 262 263 263 264 265 265 266 266 267 267 267 267 268 268 269 269 270 272 274 275 276 276 276 277 277 277 278 278 278 278 276 275 273 272 273 274 277 280 283 284 285 288 288 287 288 291 289 285 286 288 289 289 288 289 289 290 291 293 298 301 301 300 302 302 293 289 291 290 288 287 286 285 286 287 288 289
254 255 256 257 257 258 258 258 259 260 260 261 262 263 263 264 264 265 265 266 266 266 267 267 268 268 269 269 270 272 273 272 274 276 276 275 275 275 276 276 276 275 274 274 274 274 275 277 280 283 285 286 288 289 288 287 289 290 288 286 287 286 286 287 289 288 288 289 291 293 296 300 299 297 300 298 291 290 292 292 292 291 291 288 285 285 285 286
254 255 255 256 257 257 258 259 259 260 261 261 262 262 263 264 264 265 265 266 266 266 267 267 267 268 269 269 270 272 272 271 272 274 275 275 274 274 274 274 274 274 274 274 275 276 277 279 281 283 285 287 288 288 287 289 291 289 288 289 289 287 286 287 288 288 288 290 292 293 293 296 297 297 300 297 293 293 291 290 291 290 289 289 288 287 285 283
254 254 255 255 256 256 257 258 258 259 260 260 261 262 263 264 265 266 266 267 267 268 268 268 268 268 269 269 271 272 270 270 271 272 273 274 274 274 274 275 275 275 275 275 276 278 279 280 282 284 285 286 287 287 287 289 289 289 290 289 288 288 288 288 288 288 290 290 291 292 292 294 296 299 301 297 296 296 292 289 288 288 287 285 288 289 287 284
253 254 255 255 255 256 256 257 257 258 259 260 261 263 264 265 266 267 267 268 269 269 269 269 269 269 269 270 271 270 268 269 270 272 273 274 275 276 276 276 276 276 276 277 278 279 280 281 283 285 286 287 286 286 287 288 287 288 290 288 288 287 287 288 288 290 291 290 291 291 290 292 296 299 299 298 298 296 293 290 287 287 286 285 285 285 284 283
253 254 254 254 255 255 256 257 258 259 260 261 262 263 264 265 266 267 267 268 269 270 270 270 270 270 269 269 269 269 269 269 270 272 273 275 276 277 278 278 278 278 278 279 279 279 281 282 283 284 285 286 287 287 288 288 287 289 289 288 288 287 287 288 288 289 290 290 291 290 289 291 297 300 299 298 298 296 295 295 293 289 287 287 285 281 280 281
253 254 254 255 256 257 258 258 259 260 261 262 263 264 264 265 266 267 267 268 269 270 270 270 270 270 269 269 268 268 269 270 271 273 274 276 277 277 278 279 279 279 280 280 280 280 281 282 282 283 284 285 286 287 287 287 287 289 288 287 288 288 289 289 288 288 289 289 290 289 289 292 296 297 296 295 295 294 295 296 294 291 290 289 285 282 282 282
255 255 256 257 258 258 259 260 261 261 262 263 263 264 264 265 266 267 267 268 268 269 269 270 270 270 270 269 268 268 268 270 272 272 274 275 276 277 277 277 278 279 279 279 280 280 280 281 281 282 283 283 285 286 286 286 287 288 287 286 288 290 291 291 289 290 290 289 288 288 290 294 296 296 295 294 293 293 294 294 294 293 292 290 287 287 285 282
256 257 258 258 259 259 260 261 262 262 263 263 264 264 265 265 266 266 267 268 268 268 269 270 270 271 271 270 269 269 270 271 271 271 272 273 274 275 276 277 278 278 278 279 279 280 280 281 281 282 282 283 285 286 285 285 285 286 286 287 289 290 291 291 290 292 292 288 287 290 292 294 296 296 295 293 293 294 293 293 294 295 293 291 291 290 287 285
258 258 258 259 259 260 261 261 262 263 263 264 264 265 265 266 266 267 267 268 268 269 270 270 271 272 273 273 271 270 270 270 271 271 272 273 274 274 275 276 277 277 278 279 279 280 281 281 282 282 282 284 287 286 285 285 285 286 286 288 289 289 291 292 293 297 295 292 294 296 296 296 296 297 297 296 295 295 293 292 292 291 290 291 292 291 292 294
258 259 260 260 261 262 262 263 264 264 264 265 266 266 267 267 268 268 268 269 270 271 271 271 272 272 273 273 272 271 270 270 271 271 272 273 274 275 276 276 277 279 279 280 280 280 281 282 282 282 283 286 287 285 284 285 287 288 288 288 288 289 290 292 294 296 294 295 298 299 298 298 299 300 302 302 300 298 297 295 294 292 290 290 291 293 296 297
259 260 261 262 263 264 265 265 266 266 267 267 267 268 269 269 269 269 269 270 271 271 271 271 272 272 273 273 272 271 270 270 270 271 272 274 274 276 276 277 278 279 280 281 280 280 281 282 281 281 284 286 284 282 283 285 286 287 287 288 288 289 290 291 292 291 290 293 295 296 296 296 296 299 301 303 302 300 299 297 296 294 292 292 293 294 294 292
259 260 262 263 264 265 266 266 267 268 268 268 269 269 270 271 271 271 271 271 272 272 273 273 272 271 273 274 272 271 271 269 269 270 271 273 274 275 276 277 279 280 281 280 279 280 280 280 281 281 282 282 282 283 284 284 284 284 285 286 287 288 289 290 290 289 289 290 291 292 292 291 293 297 300 302 303 302 300 298 296 295 295 295 295 293 292 289
259 260 261 262 263 264 265 266 267 267 268 269 269 270 271 272 272 272 273 272 272 273 274 275 275 274 273 273 272 273 272 270 269 269 270 271 273 275 276 278 279 280 280 279 279 280 279 278 279 280 279 279 279 281 282 283 284 284 285 285 286 287 289 290 290 289 289 289 290 290 289 289 292 295 297 299 301 301 299 297 296 298 297 295 294 293 291 289
259 260 261 262 263 264 265 265 266 267 269 270 271 272 273 273 273 274 275 273 273 274 275 275 276 276 274 272 273 274 273 272 271 270 270 272 273 275 276 278 279 280 280 279 280 281 279 278 278 278 279 279 278 278 279 280 282 284 284 285 286 287 288 288 288 288 288 288 289 288 287 288 292 293 294 297 299 298 297 297 299 301 298 293 292 291 290 289
260 261 262 263 263 264 265 265 266 268 269 270 272 273 274 275 275 275 276 276 274 273 274 276 276 277 275 275 275 274 274 274 274 273 273 274 273 274 276 279 279 279 279 280 280 279 279 279 279 278 278 278 278 278 279 279 280 282 283 284 285 287 288 287 288 288 288 289 289 287 287 288 292 295 295 298 298 295 293 295 299 301 298 295 293 291 289 288
261 263 264 264 264 264 265 266 267 268 270 271 272 273 274 275 275 276 276 277 276 274 273 274 275 276 276 277 277 277 276 277 277 277 276 274 273 275 277 278 278 277 278 278 277 276 277 278 279 280 279 277 277 278 279 279 279 280 281 283 285 287 288 288 289 289 290 291 291 292 292 291 295 298 300 304 303 300 298 297 300 301 299 299 298 296 294 292
262 264 265 265 264 264 265 266 267 268 270 271 272 272 273 273 274 276 276 276 275 275 274 273 273 275 276 278 278 279 279 279 279 279 277 276 276 277 277 277 277 276 275 275 275 275 275 276 278 280 281 280 280 279 279 280 280 281 281 283 286 287 287 288 289 290 291 292 293 295 295 295 297 301 304 306 305 303 302 301 301 301 302 304 306 305 305 303
263 263 264 264 264 264 265 266 267 268 269 270 271 271 271 272 274 275 276 276 275 276 276 275 274 275 276 278 280 280 280 280 280 279 279 279 278 278 276 275 276 275 273 274 275 275 276 276 276 277 278 280 281 282 281 281 281 281 282 285 286 286 286 287 288 289 290 292 293 295 297 297 298 303 306 305 304 302 301 303 304 305 308 310 313 313 309 303
262 263 263 263 263 263 264 265 266 267 268 269 269 270 271 273 274 274 276 276 275 276 276 276 276 277 278 279 280 281 280 280 280 280 280 280 279 279 278 277 276 275 275 275 276 277 277 276 275 276 276 278 280 281 281 281 281 281 283 285 285 286 286 286 288 289 290 290 290 292 298 298 297 301 305 304 304 302 301 305 308 309 312 313 315 315 305 285
261 261 261 262 262 263 264 265 266 267 268 269 269 271 272 273 273 274 275 275 275 274 275 277 279 280 280 280 280 279 279 279 279 279 280 279 279 279 279 279 278 276 276 276 277 278 277 276 275 275 275 277 278 278 279 280 281 282 284 285 285 286 286 287 288 288 289 288 287 291 298 298 294 296 301 302 303 303 302 306 308 310 312 312 312 311 298 279
259 260 260 261 262 264 264 265 265 266 267 268 270 270 270 270 271 272 273 273 272 273 275 277 279 281 281 281 280 278 277 278 278 278 278 278 279 279 280 280 279 278 276 275 276 277 277 276 275 275 276 276 276 277 278 280 281 283 284 285 286 287 288 289 289 289 289 287 288 295 299 298 294 294 297 299 301 302 303 306 308 310 310 309 307 304 294 278
260 260 261 262 262 264 265 265 266 266 266 267 269 269 269 268 269 271 270 269 270 272 274 277 278 279 280 280 279 277 276 277 277 277 277 277 278 279 280 282 282 281 278 277 277 276 275 276 276 277 277 277 278 279 279 280 282 284 285 286 287 288 289 290 290 290 290 289 291 295 296 296 294 292 295 298 300 302 303 305 307 307 307 305 301 299 293 277
261 261 262 263 263 264 264 265 266 265 265 266 266 267 267 266 267 269 268 268 271 273 274 276 277 277 277 276 276 276 276 275 275 276 276 276 276 278 280 281 281 280 278 277 276 275 276 277 278 278 279 280 280 280 281 282 285 286 286 287 288 289 289 290 289 290 292 292 292 293 292 292 291 291 295 298 299 301 302 303 304 302 302 300 297 295 290 278
260 261 263 264 265 266 267 268 269 268 267 265 263 263 264 265 266 267 267 269 272 273 274 275 275 275 274 273 273 273 274 275 275 275 275 275 276 277 278 278 277 275 274 274 274 274 276 276 277 278 279 281 281 282 284 286 287 287 288 290 290 290 290 291 292 293 294 294 293 292 291 290 290 291 294 297 298 299 299 299 298 297 297 296 294 292 286 278
257 258 262 264 265 267 269 270 269 269 269 267 264 263 264 265 265 265 267 269 271 272 274 274 273 273 273 273 272 272 273 275 275 276 276 275 276 276 276 274 273 273 272 273 274 275 275 275 276 277 278 280 282 285 287 288 289 289 290 291 290 291 291 292 293 293 293 293 292 291 290 290 290 292 293 295 296 296 296 295 294 293 292 291 288 286 283 280
255 256 258 261 260 260 262 263 263 263 264 265 265 264 265 266 267 267 268 269 269 269 270 270 270 271 272 272 272 272 273 274 275 276 276 275 275 274 273 272 272 273 274 275 276 276 276 276 277 278 279 280 283 285 287 288 290 290 290 290 289 291 292 292 291 290 290 289 288 288 289 289 291 293 293 293 294 294 294 294 293 292 290 288 285 281 280 280
255 256 257 258 256 255 255 257 261 259 256 257 257 258 263 268 269 268 267 266 266 267 266 266 267 268 269 270 270 271 273 273 274 274 274 275 276 275 275 274 274 274 275 274 275 275 276 277 279 281 282 283 285 286 287 289 289 289 290 289 289 290 290 288 287 287 287 285 284 286 287 288 290 291 291 291 292 292 291 290 289 288 286 284 283 281 279 278
255 256 256 254 254 255 255 255 259 258 254 251 250 253 259 263 263 263 264 264 265 265 265 265 266 266 268 269 270 272 272 273 274 274 276 277 277 277 277 276 276 275 275 274 275 276 278 279 281 282 283 284 286 287 288 290 289 288 288 288 289 289 286 284 284 285 284 281 283 287 288 289 290 289 290 290 290 289 287 286 284 283 282 281 281 281 280 278
256 257 258 256 253 254 256 258 259 259 257 255 254 256 259 260 260 261 264 264 264 265 267 268 269 269 271 273 274 274 274 274 275 277 278 279 279 279 278 276 275 276 275 276 276 276 277 279 280 282 283 284 286 287 289 291 290 289 289 289 288 287 285 285 284 284 283 282 285 287 288 289 289 289 291 291 289 288 286 283 282 281 281 281 282 281 280 279
258 259 260 260 257 257 258 260 261 260 259 259 260 261 262 262 261 261 263 263 264 267 269 270 272 273 274 275 275 276 277 278 278 278 279 278 279 279 277 274 273 274 274 275 276 276 276 277 278 279 281 284 285 287 288 290 290 289 288 287 286 284 284 284 283 283 284 284 285 287 286 287 288 289 290 290 289 288 284 282 281 281 281 282 282 281 280 280
259 259 259 258 256 257 257 258 259 260 260 262 263 262 261 260 260 261 262 264 267 271 274 274 276 276 275 274 275 276 278 278 278 278 279 277 276 275 274 273 273 274 274 274 274 275 277 278 278 278 280 283 284 285 286 287 287 286 284 283 283 282 282 282 280 281 283 283 284 285 284 285 287 287 286 286 285 283 281 282 282 282 282 282 280 279 280 281
258 257 257 257 256 255 255 255 256 258 260 262 262 261 261 262 264 266 268 270 273 275 276 276 275 274 273 271 271 272 273 274 274 274 274 273 272 271 272 272 273 274 274 275 276 277 279 280 281 280 280 282 284 286 286 284 282 282 282 282 282 282 282 280 278 278 280 280 281 281 282 284 285 283 282 281 279 276 277 279 279 278 278 279 279 279 280 280
257 255 255 256 257 256 256 258 258 260 262 263 262 264 267 269 271 272 274 275 276 275 273 271 270 269 268 266 266 267 267 268 268 267 266 267 268 270 272 273 274 275 277 279 281 282 283 284 284 284 283 284 285 286 285 283 281 281 282 282 283 283 282 280 280 281 281 279 279 279 279 280 280 279 279 278 275 274 275 275 274 274 273 274 275 276 277 278
256 254 253 254 257 258 259 260 261 263 265 266 267 271 274 274 274 274 275 275 275 272 270 269 269 269 266 263 262 262 262 263 263 264 265 265 267 270 272 273 275 278 280 282 283 284 285 285 285 285 285 285 285 285 285 283 282 280 280 281 282 281 279 280 281 284 283 280 279 279 277 278 279 278 276 274 272 272 272 272 273 273 272 272 272 273 275 275
253 252 252 253 256 258 260 261 262 264 265 268 270 272 273 274 274 274 273 273 272 271 269 269 269 267 264 262 261 261 262 264 264 265 268 269 270 272 273 275 277 280 281 282 283 283 284 283 283 284 284 284 284 284 283 281 280 279 279 279 279 279 279 279 280 282 280 278 278 277 274 276 278 277 273 272 272 271 270 270 271 271 271 271 272 273 274 274
247 249 250 252 255 257 260 262 264 265 266 268 270 271 272 272 272 272 272 271 270 269 268 268 267 266 264 263 263 263 265 267 269 270 272 273 273 274 276 277 279 280 281 281 282 282 281 281 281 281 281 281 281 282 281 279 278 277 277 278 277 278 279 278 278 277 275 276 276 273 270 273 276 274 273 273 272 270 269 269 269 269 269 270 272 273 273 273
248 252 254 256 260 262 263 265 267 268 268 269 270 271 271 270 270 270 270 269 268 267 266 266 266 266 266 266 266 267 268 270 272 273 274 275 274 275 276 277 277 278 278 279 279 279 278 278 278 279 279 279 280 280 280 278 276 275 275 276 276 277 277 278 277 275 274 276 274 269 270 274 274 274 273 273 271 270 270 270 271 270 270 271 272 273 273 273
255 258 260 262 264 265 265 266 267 268 269 270 271 270 269 268 267 266 265 265 265 265 266 267 268 269 269 270 271 271 272 273 274 274 275 275 275 275 275 275 275 275 275 276 277 276 276 276 276 277 277 277 279 279 278 276 275 275 275 275 276 277 278 277 276 275 276 276 271 270 274 275 273 273 274 273 272 273 274 274 274 273 273 274 274 274 274 274
257 260 262 263 264 265 265 266 267 269 270 270 270 270 270 269 268 267 266 267 267 267 268 270 271 273 274 275 275 275 275 275 275 275 276 276 275 275 274 273 274 274 275 275 275 275 274 274 275 275 274 274 276 276 275 274 274 274 274 275 276 276 277 277 276 276 277 274 272 274 276 274 274 275 274 274 274 275 276 276 276 276 276 276 276 276 276 276
259 260 261 263 264 265 266 267 268 269 269 269 269 269 269 269 269 270 270 271 271 271 272 273 275 276 276 276 276 275 276 276 275 276 276 275 274 273 273 273 273 273 273 273 273 273 272 273 274 273 272 273 274 274 275 274 273 273 274 274 275 276 276 276 276 276 275 274 275 277 276 275 276 277 275 275 275 275 276 277 277 278 278 278 278 278 278 279
260 261 262 263 264 265 266 266 267 267 267 268 268 268 269 269 270 271 271 271 272 273 273 275 275 275 275 275 274 274 275 274 274 274 273 273 272 272 273 273 272 272 272 272 272 271 271 272 273 272 272 272 273 275 275 275 274 273 274 274 275 276 276 276 275 276 276 276 277 279 278 278 278 278 278 277 277 277 278 278 278 279 279 279 280 280 280 280
260 261 262 263 263 264 265 265 265 265 265 266 266 268 269 269 270 271 271 271 271 272 273 274 274 273 273 273 272 272 272 272 271 271 271 271 271 271 271 271 271 271 271 270 270 270 271 272 272 272 273 273 273 275 275 274 274 274 274 275 277 278 278 277 277 277 277 277 278 279 279 279 280 280 279 279 280 280 280 280 280 281 281 281 281 281 281 281
261 261 262 262 263 263 264 264 264 264 264 265 267 269 269 269 270 271 270 270 270 271 272 272 272 271 271 271 270 270 270 270 270 270 270 270 269 269 268 269 269 270 270 270 269 270 272 273 273 273 274 274 274 275 274 274 274 274 275 278 279 279 279 278 278 277 277 278 279 279 279 280 281 281 280 281 281 281 281 282 282 282 282 282 281 281 282 282
260 261 261 262 262 263 263 264 264 264 265 266 267 268 267 268 268 268 268 269 270 271 271 270 270 269 268 268 268 268 269 269 269 269 269 268 267 267 268 268 269 270 270 270 271 271 272 273 274 274 275 275 275 275 275 275 273 274 278 281 280 279 278 277 277 277 278 279 280 280 281 282 282 281 282 282 282 282 283 283 283 283 283 283 282 283 282 282